Flight Track Log - Related Links

Times and Time Zones

All times are in EDT time to prevent confusion due to time zone crossing. See the CPT7773 flight status page for this flight to view local times or setup timezone preferences in your user account.

Time Position Orientation Groundspeed Altitude Reporting Facility
EDT Latitude Longitude Course Direction KTS MPH feet Rate Location/Type
Fri 08:02:49 PM 44.5372 -108.9708 133° Southeast 130 150 6,400  Level Salt Lake Center
Fri 08:03:51 PM 44.5250 -108.9214 109° East 136 157 7,500 1,016 Climbing Salt Lake Center
Fri 08:04:53 PM 44.5150 -108.8653 104° East 141 162 8,500 976 Climbing Salt Lake Center
Fri 08:05:54 PM 44.5042 -108.8064 104° East 149 171 9,500 1,024 Climbing Salt Lake Center
Fri 08:06:56 PM 44.4861 -108.7508 114° Southeast 154 177 10,600 677 Climbing Salt Lake Center
Fri 08:07:58 PM 44.4458 -108.6931 134° Southeast 164 189 10,900 195 Climbing Salt Lake Center
Fri 08:08:00 PM 44.3205 -108.6941 133° Southeast  Level Estimated
Fri 08:08:59 PM 44.4097 -108.6375 132° Southeast 178 205 11,000  Level Salt Lake Center
Fri 08:10:01 PM 44.3739 -108.5828 132° Southeast 186 214 11,000  Level Salt Lake Center
Fri 08:11:03 PM 44.3383 -108.5278 132° Southeast 189 217 11,000  Level Salt Lake Center
Fri 08:12:05 PM 44.3028 -108.4722 132° Southeast 191 220 11,000  Level Salt Lake Center
Fri 08:13:07 PM 44.2658 -108.4164 133° Southeast 193 222 11,000  Level Salt Lake Center
Fri 08:14:08 PM 44.2222 -108.3494 132° Southeast 195 224 11,000  Level Salt Lake Center
Fri 08:15:10 PM 44.1861 -108.2942 132° Southeast 195 224 11,000  Level Salt Lake Center
Fri 08:16:12 PM 44.1486 -108.2367 132° Southeast 197 227 11,000  Level Salt Lake Center
Fri 08:17:13 PM 44.1125 -108.1792 131° Southeast 198 228 11,000  Level Salt Lake Center
Fri 08:18:15 PM 44.0761 -108.1250 133° Southeast 196 226 11,000  Level Salt Lake Center
Fri 08:19:17 PM 44.0392 -108.0683 132° Southeast 196 226 11,000 48 Level Salt Lake Center
Fri 08:20:19 PM 44.0019 -108.0119 133° Southeast 198 228 11,100 49 Climbing Salt Lake Center
Fri 08:21:20 PM 43.9589 -107.9450 132° Southeast 197 227 11,100 -49 Level Salt Lake Center
Fri 08:22:22 PM 43.9269 -107.8856 127° Southeast 194 223 11,000 -48 Descending Salt Lake Center
Fri 08:23:24 PM 43.8961 -107.8244 125° Southeast 193 222 11,000 49 Level Salt Lake Center
Fri 08:24:25 PM 43.8658 -107.7622 124° Southeast 194 223 11,100  Climbing Salt Lake Center
Fri 08:25:27 PM 43.8339 -107.7017 126° Southeast 195 224 11,000 -48 Descending Salt Lake Center
Fri 08:26:29 PM 43.8025 -107.6406 125° Southeast 195 224 11,000  Level Salt Lake Center
Fri 08:27:31 PM 43.7717 -107.5817 126° Southeast 193 222 11,000  Level Salt Lake Center
Fri 08:28:32 PM 43.7328 -107.5083 126° Southeast 195 224 11,000  Level Salt Lake Center
Fri 08:29:34 PM 43.7019 -107.4458 124° Southeast 196 226 11,000  Level Salt Lake Center
Fri 08:30:36 PM 43.6694 -107.3850 126° Southeast 197 227 11,000  Level Salt Lake Center
Fri 08:31:37 PM 43.6381 -107.3236 125° Southeast 196 226 11,000  Level Salt Lake Center
Fri 08:32:40 PM 43.6064 -107.2611 125° Southeast 197 227 11,000  Level Salt Lake Center
Fri 08:33:41 PM 43.5733 -107.1983 126° Southeast 199 229 11,000  Level Salt Lake Center
Fri 08:34:43 PM 43.5356 -107.1231 125° Southeast 199 229 11,000 49 Level Salt Lake Center
Fri 08:35:44 PM 43.5025 -107.0606 126° Southeast 201 231 11,100  Climbing Salt Lake Center
Fri 08:36:46 PM 43.4692 -106.9989 127° Southeast 202 232 11,000 -48 Descending Salt Lake Center
Fri 08:37:48 PM 43.4350 -106.9361 127° Southeast 205 236 11,000  Level Salt Lake Center
Fri 08:38:49 PM 43.3922 -106.8828 138° Southeast 199 229 11,000  Level Salt Lake Center
Fri 08:39:51 PM 43.3458 -106.8453 150° Southeast 201 231 11,000 -242 Level Salt Lake Center
Fri 08:40:53 PM 43.2903 -106.7989 149° Southeast 207 238 10,500 -439 Descending Salt Lake Center
Fri 08:41:54 PM 43.2425 -106.7575 148° Southeast 211 243 10,100 -390 Descending Salt Lake Center
Fri 08:42:56 PM 43.1878 -106.7083 147° Southeast 211 243 9,700 -532 Descending Salt Lake Center
Fri 08:43:58 PM 43.1436 -106.6639 144° Southeast 208 239 9,000 -537 Descending Salt Lake Center
Fri 08:44:59 PM 43.0997 -106.6206 144° Southeast 206 237 8,600 -488 Descending Salt Lake Center
Fri 08:46:01 PM 43.0492 -106.5711 144° Southeast 203 234 8,000 -575 Descending Salt Lake Center
Fri 08:47:25 PM 42.9861 -106.5083 144° Southeast 197 227 7,200 -493 Descending Denver Center
Fri 08:48:27 PM 42.9531 -106.4728 142° Southeast 195 224 6,800 -387 Descending Denver Center

Login

Don't have an account? Register now (free) for customized features, flight alerts, and more!